This demonstration page uses our WeatherBlox Daily Observations layout. Learn more.

Left ArrowRight Arrow

Hourly Observations for August 12, 2017

Temp ( °F °C ) Dew Point ( °F °C ) Humidity (%) Winds ( mph kmh ) Pressure ( in mb ) Visibility ( mi km ) Precip ( " mm )
2:51 am 02:51 Mostly Cloudy with Light Rain 72 22.2 66 18.9 82 82 E 15 24 29.84 1011 10 16.0934 0.01 0.254
3:51 am 03:51 Mostly Cloudy 74 23.3 65 18.3 74 74 E 14 22 29.86 1011 10 16.0934 0 0.0254
4:51 am 04:51 Mostly Clear 73 22.8 65 18.3 76 76 E 9 15 29.88 1012 10 16.0934 0 0
5:51 am 05:51 Sunny 72 22.2 66 18.9 82 82 ESE 9 15 29.89 1012 10 16.0934 0 0
6:51 am 06:51 Sunny 74 23.3 67 19.4 79 79 E 9 15 29.91 1013 10 16.0934 0 0
7:51 am 07:51 Sunny 79 26.1 66 18.9 65 65 E 9 15 29.92 1013 10 16.0934 0 0
8:51 am 08:51 Mostly Sunny 78 25.6 65 18.3 64 64 Calm 29.94 1014 10 16.0934 0 0
9:51 am 09:51 Sunny 79 26.1 65 18.3 62 62 Calm 29.93 1014 10 16.0934 0 0
10:51 am 10:51 Sunny 81 27.2 65 18.3 58 58 Calm 29.91 1013 10 16.0934 0 0
11:51 am 11:51 Sunny 81 27.2 65 18.3 58 58 NW 3 6 29.91 1013 10 16.0934 0 0
12:51 pm 12:51 Sunny 84 28.9 66 18.9 55 55 W 10 17 29.89 1012 10 16.0934 0 0
1:51 pm 13:51 Sunny 88 31.1 64 17.8 45 45 WNW 10 17 29.85 1011 10 16.0934 0 0
2:51 pm 14:51 Sunny 91 32.8 63 17.2 39 39 WNW 10 17 29.8 1009 10 16.0934 0 0
3:51 pm 15:51 Sunny 92 33.3 60 15.6 34 34 NW 13 20 29.78 1008 10 16.0934 0 0
4:51 pm 16:51 Sunny 93 33.9 58 14.4 31 31 NW 9 15 29.76 1008 10 16.0934 0 0
5:51 pm 17:51 Sunny 92 33.3 59 15 33 33 WNW 10 17 29.75 1007 10 16.0934 0 0
6:51 pm 18:51 Sunny 89 31.7 62 16.7 41 41 NW 8 13 29.77 1008 10 16.0934 0 0
7:51 pm 19:51 Clear 84 28.9 64 17.8 51 51 NW 3 6 29.78 1009 10 16.0934 0 0
8:51 pm 20:51 Clear 83 28.3 64 17.8 53 53 N 6 9 29.81 1010 10 16.0934 0 0
9:51 pm 21:51 Clear 81 27.2 65 18.3 58 58 E 3 6 29.85 1011 10 16.0934 0 0
10:51 pm 22:51 Clear with Nearby Thunderstorms 80 26.7 62 16.7 54 54 SSE 5 7 29.84 1011 10 16.0934 0 0
11:00 pm 23:00 Clear with Thunderstorms 79 26 63 17 58 58 SSE 7 11 29.83 1010 10 16.0934 0 0
11:15 pm 23:15 Mostly Cloudy with Nearby Thunderstorms 80 26.7 60 15.6 51 51 SE 12 19 29.83 1010 10 16.0934 0 0
11:23 pm 23:23 Partly Cloudy 80 26.7 60 15.6 51 51 SE 14 22 29.83 1010 10 16.0934 0 0
11:51 pm 23:51 Clear 79 26.1 63 17.2 58 58 SSE 13 20 29.87 1012 10 16.0934 0 0

Powered by AerisWeather